TimeCST,TemperatureF,Dew PointF,Humidity,Sea Level PressureIn,VisibilityMPH,Wind Direction,Wind SpeedMPH,Gust SpeedMPH,PrecipitationIn,Events,Conditions,WindDirDegrees,DateUTC
12:19 AM,24.8,19.4,80,30.03,8.0,ENE,5.8,-,N/A,,Scattered Clouds,60,2013-02-26 06:19:00
12:54 AM,23.0,18.0,81,30.09,8.0,ENE,5.8,-,N/A,,Partly Cloudy,60,2013-02-26 06:54:00
1:27 AM,23.0,19.4,86,30.02,7.0,Calm,Calm,-,N/A,,Mostly Cloudy,0,2013-02-26 07:27:00
1:54 AM,25.0,19.9,81,30.07,8.0,ENE,5.8,-,N/A,,Overcast,70,2013-02-26 07:54:00
2:54 AM,26.1,19.9,78,30.05,8.0,ENE,6.9,-,N/A,,Overcast,60,2013-02-26 08:54:00
3:54 AM,26.1,19.9,78,30.02,8.0,NE,8.1,-,N/A,,Overcast,50,2013-02-26 09:54:00
4:24 AM,24.8,19.4,80,29.96,7.0,NE,9.2,-,N/A,,Scattered Clouds,50,2013-02-26 10:24:00
4:54 AM,24.1,19.0,81,30.01,7.0,NNE,9.2,-,N/A,,Clear,30,2013-02-26 10:54:00
5:54 AM,21.0,17.1,85,30.02,6.0,ENE,8.1,-,N/A,,Clear,70,2013-02-26 11:54:00
6:54 AM,21.9,18.0,85,30.00,5.0,ENE,9.2,-,N/A,,Scattered Clouds,70,2013-02-26 12:54:00
7:22 AM,21.2,19.4,93,29.94,5.0,ENE,9.2,-,N/A,,Scattered Clouds,60,2013-02-26 13:22:00
7:54 AM,24.1,21.0,88,29.99,5.0,ENE,11.5,-,N/A,,Partly Cloudy,60,2013-02-26 13:54:00
8:54 AM,27.0,23.0,85,29.99,8.0,ENE,16.1,-,N/A,,Partly Cloudy,70,2013-02-26 14:54:00
9:44 AM,30.2,24.8,80,29.93,10.0,East,13.8,-,N/A,,Mostly Cloudy,80,2013-02-26 15:44:00
9:54 AM,30.9,24.1,76,29.99,10.0,East,15.0,-,N/A,,Overcast,80,2013-02-26 15:54:00
10:54 AM,32.0,24.1,73,29.95,10.0,ENE,18.4,24.2,N/A,,Overcast,70,2013-02-26 16:54:00
11:54 AM,32.0,24.1,73,29.92,10.0,ENE,18.4,27.6,N/A,,Overcast,60,2013-02-26 17:54:00
12:54 PM,33.1,25.0,72,29.89,10.0,NE,17.3,25.3,N/A,,Overcast,50,2013-02-26 18:54:00
1:54 PM,34.0,25.0,70,29.88,10.0,NE,15.0,26.5,N/A,,Overcast,50,2013-02-26 19:54:00
2:54 PM,34.0,25.0,70,29.86,10.0,NE,19.6,26.5,N/A,,Overcast,50,2013-02-26 20:54:00
3:54 PM,33.1,24.1,70,29.86,10.0,NE,17.3,25.3,N/A,,Mostly Cloudy,50,2013-02-26 21:54:00
4:54 PM,33.1,23.0,66,29.86,10.0,ENE,17.3,-,N/A,,Overcast,60,2013-02-26 22:54:00
5:54 PM,32.0,23.0,69,29.85,10.0,NE,16.1,24.2,N/A,,Mostly Cloudy,40,2013-02-26 23:54:00
6:21 PM,32.0,23.0,69,29.79,10.0,NE,16.1,-,N/A,,Scattered Clouds,50,2013-02-27 00:21:00
6:43 PM,32.0,23.0,69,29.79,10.0,NE,15.0,21.9,N/A,,Mostly Cloudy,50,2013-02-27 00:43:00
6:54 PM,32.0,23.0,69,29.85,10.0,ENE,13.8,-,N/A,,Mostly Cloudy,60,2013-02-27 00:54:00
7:54 PM,30.9,23.0,72,29.84,10.0,ENE,18.4,24.2,N/A,,Overcast,60,2013-02-27 01:54:00
8:54 PM,30.9,21.9,69,29.83,10.0,ENE,16.1,23.0,N/A,,Overcast,70,2013-02-27 02:54:00
9:54 PM,30.9,23.0,72,29.83,10.0,ENE,17.3,26.5,N/A,,Overcast,60,2013-02-27 03:54:00
10:54 PM,30.0,23.0,75,29.81,10.0,NE,11.5,-,N/A,,Overcast,40,2013-02-27 04:54:00
11:54 PM,30.0,23.0,75,29.80,10.0,NE,10.4,-,N/A,,Overcast,40,2013-02-27 05:54:00